[[{"header":{"parameterUnit":"m.s-1","parameterCategory":1,"la1":30.2991,"la2":30.254,"lo1":-89.0895,"lo2":-89.0444,"dy":0.0017,"dx":0.0017,"nx":28,"ny":28,"refTime":"2023-09-17T03:00:00:Z","depth":0,"parameterNumber":2,"parameterNumberName":"U-component_of_WINDS"},"data":[0,0,0,0,0,0,0,0,0,0,0,0,0,0,0,0,0,0,0,0,0,0,0,0,0,0,0,0,0,0,0,0,0,0,0,0,0,0,0,0,0,0,0,0,0,0,0,0,0,0,0,0,0,0,0,0,0,0,-0.6797,-0.6797,0,-0.6755,-0.6754,-0.6754,-0.6716,-0.6716,-0.6715,-0.6715,-0.6671,-0.667,-0.6669,0,0,0,0,0,0,0,0,0,0,0,0,0,-0.6843,-0.6843,-0.6797,-0.6797,-0.6796,-0.6755,-0.6754,-0.6754,-0.6716,-0.6716,-0.6715,-0.6715,-0.6671,-0.667,-0.6669,0,0,0,0,0,0,0,0,0,0,0,0,0,-0.6814,-0.6843,-0.6797,-0.6773,-0.677,-0.6755,-0.6754,-0.6753,-0.6717,-0.6716,-0.6715,-0.6715,-0.6671,-0.667,-0.6669,-0.6674,0,0,-0.6665,-0.6665,0,0,0,0,0,0,0,0,-0.6816,-0.6813,-0.6777,-0.6774,-0.6771,-0.674,-0.6754,-0.6727,-0.6717,-0.6737,-0.6715,-0.6714,-0.6694,-0.6691,-0.6684,-0.6672,-0.667,-0.6665,-0.6664,-0.6664,-0.6664,0,0,0,0,0,0,0,-0.6818,-0.6814,-0.678,-0.6776,-0.6773,-0.6763,-0.6758,-0.6749,-0.672,-0.6735,-0.6732,-0.6728,-0.6693,-0.6686,-0.6683,-0.667,-0.6665,-0.6664,-0.6663,-0.6663,-0.6658,-0.6659,0,0,0,0,0,0,-0.6824,-0.6816,-0.6782,-0.6779,-0.6793,-0.6763,-0.6757,-0.6751,-0.672,-0.6714,-0.6728,-0.6726,-0.6688,-0.6685,-0.6681,-0.6685,-0.6664,-0.6663,-0.6662,-0.6658,-0.6658,-0.6659,0,0,0,0,0,0,-0.6825,-0.6822,-0.6783,-0.6797,-0.6791,-0.6762,-0.6756,-0.675,-0.6743,-0.6715,-0.6709,-0.6727,-0.6687,-0.6683,-0.6676,-0.6683,-0.6662,-0.6661,-0.6657,-0.6658,-0.6659,-0.6693,0,0,0,0,0,0,-0.6827,-0.6822,-0.6825,-0.6797,-0.6791,-0.678,-0.6756,-0.675,-0.6742,-0.6738,-0.6712,-0.6707,-0.6687,-0.6678,-0.6675,-0.6681,-0.666,-0.6656,-0.6657,-0.6658,-0.6691,-0.6695,-0.6698,0,0,0,0,0,-0.6829,-0.6836,-0.6825,-0.6821,-0.6793,-0.678,-0.6776,-0.6753,-0.6742,-0.6744,-0.6725,-0.6708,-0.6683,-0.6678,-0.6674,-0.668,-0.6656,-0.6657,-0.6658,-0.6689,-0.6694,-0.6698,0,0,0,0,0,0,-0.6865,-0.6832,-0.682,-0.6819,-0.6802,-0.6774,-0.6776,-0.6759,-0.6746,-0.6743,-0.6715,-0.6709,-0.6705,-0.6691,-0.6687,-0.6682,-0.6667,-0.6667,-0.6692,-0.6696,-0.6699,-0.6703,-0.6659,0,0,0,0,0,-0.6873,-0.6866,-0.6837,-0.6839,-0.6831,-0.6805,-0.6798,-0.6782,-0.6764,-0.6757,-0.6738,-0.672,-0.6708,-0.6701,-0.6689,-0.6689,-0.6681,-0.669,-0.6694,-0.6697,-0.6698,-0.6695,-0.6698,-0.6663,-0.6663,-0.6663,0,0,-0.689,-0.6871,-0.6868,-0.6846,-0.6831,-0.6823,-0.68,-0.6793,-0.6786,-0.6756,-0.6748,-0.6733,-0.6712,-0.6708,-0.6705,-0.6696,-0.6706,-0.6699,-0.6701,-0.67,-0.6697,-0.67,-0.6703,-0.6664,-0.6664,-0.6664,0,0,-0.6915,-0.6901,-0.69,-0.6886,-0.6864,-0.6846,-0.6846,-0.682,-0.6809,-0.68,-0.6777,-0.6768,-0.6749,-0.6734,-0.6724,-0.6743,-0.6725,-0.6739,-0.6758,-0.6755,-0.6758,-0.676,-0.6766,-0.6769,-0.674,-0.674,-0.674,0,-0.6939,-0.6926,-0.6902,-0.6896,-0.6886,-0.6858,-0.6856,-0.6844,-0.6819,-0.6813,-0.6803,-0.6777,-0.6761,-0.6753,-0.6757,-0.675,-0.6748,-0.6742,-0.676,-0.6762,-0.6764,-0.6769,-0.6771,-0.6742,-0.6742,-0.6742,-0.6741,0,-0.6955,-0.6947,-0.6949,-0.6926,-0.6916,-0.6913,-0.6887,-0.688,-0.6864,-0.6846,-0.6837,-0.6816,-0.6799,-0.6795,-0.678,-0.6784,-0.6779,-0.6765,-0.6749,-0.6769,-0.6773,-0.6775,-0.6745,-0.6744,-0.6743,-0.6743,0,0,-0.7004,-0.6966,-0.6967,-0.6956,-0.6929,-0.6922,-0.6916,-0.6899,-0.6893,-0.6877,-0.6871,-0.6854,-0.684,-0.6829,-0.6811,-0.6809,-0.6823,-0.6795,-0.6794,-0.68,-0.6826,-0.6836,-0.6839,-0.6812,-0.6812,-0.6812,-0.6827,0,-0.7025,-0.7014,-0.6991,-0.6987,-0.6978,-0.695,-0.6945,-0.6928,-0.6911,-0.69,-0.6881,-0.687,-0.6853,-0.6846,-0.6843,-0.6823,-0.6828,-0.6821,-0.6805,-0.6804,-0.6811,-0.6841,-0.6853,-0.6868,-0.6829,-0.6829,-0.6829,0,-0.7049,-0.7034,-0.7029,-0.7001,-0.6997,-0.6993,-0.6974,-0.6965,-0.6944,-0.6931,-0.6918,-0.6898,-0.6889,-0.6874,-0.6861,-0.6856,-0.6848,-0.6837,-0.6837,-0.6834,-0.6818,-0.6839,-0.6873,-0.6875,-0.6832,-0.6831,-0.6831,0,-0.7084,-0.7063,-0.7057,-0.7048,-0.7016,-0.7013,-0.7,-0.6978,-0.6968,-0.6952,-0.6945,-0.6928,-0.6918,-0.6904,-0.688,-0.6871,-0.6868,-0.6851,-0.6857,-0.6858,-0.6858,-0.6858,-0.689,-0.6853,-0.6853,-0.6853,-0.6853,0,-0.711,-0.7108,-0.7072,-0.7068,-0.7064,-0.7037,-0.7034,-0.7017,-0.6998,-0.699,-0.6964,-0.6957,-0.6925,-0.6913,-0.6894,-0.6885,-0.6881,-0.687,-0.6865,-0.6872,-0.6873,-0.6866,-0.6864,-0.6854,-0.6854,-0.6854,-0.6853,0,-0.7149,-0.7125,-0.7116,-0.7086,-0.7079,-0.7077,-0.7051,-0.7046,-0.7027,-0.7017,-0.7012,-0.6983,-0.6968,-0.6941,-0.6919,-0.6906,-0.69,-0.6892,-0.6908,-0.6904,-0.6911,-0.6911,-0.694,-0.6941,-0.6904,-0.6904,-0.6905,0,-0.7167,-0.7165,-0.7135,-0.7127,-0.7115,-0.7104,-0.7094,-0.7066,-0.7056,-0.7031,-0.7029,-0.7011,-0.6996,-0.6973,-0.6949,-0.6931,-0.6921,-0.6932,-0.6918,-0.6925,-0.6921,-0.6921,-0.692,-0.6936,-0.6936,-0.6937,-0.6937,0,-0.7202,-0.719,-0.7177,-0.7159,-0.7148,-0.7133,-0.7116,-0.7111,-0.7079,-0.707,-0.7054,-0.7042,-0.7019,-0.7002,-0.698,-0.6964,-0.6945,-0.6942,-0.6942,-0.6949,-0.6958,-0.6953,-0.6916,-0.6941,-0.6941,-0.6941,-0.694,-0.694,-0.7231,-0.7227,-0.7205,-0.719,-0.7175,-0.7159,-0.7153,-0.7133,-0.7119,-0.7098,-0.7082,-0.7067,-0.7044,-0.7013,-0.6999,-0.6986,-0.6977,-0.6978,-0.6978,-0.6978,-0.6981,-0.6961,-0.6982,-0.6982,-0.6981,-0.6981,-0.6981,0,-0.7263,-0.7247,-0.7235,-0.7212,-0.72,-0.7183,-0.7163,-0.7155,-0.7142,-0.7123,-0.7108,-0.7089,-0.7072,-0.7046,-0.7026,-0.702,-0.7011,-0.7016,-0.7016,-0.7013,-0.699,-0.6991,-0.7024,-0.7024,-0.7024,-0.7024,-0.7024,-0.7024,-0.7279,-0.7271,-0.7256,-0.724,-0.7223,-0.7209,-0.7199,-0.7184,-0.7168,-0.7148,-0.7134,-0.7117,-0.7094,-0.7072,-0.7055,-0.7048,-0.7041,-0.7049,-0.7039,-0.7018,-0.7014,-0.7011,-0.7012,-0.7048,-0.7048,-0.7063,-0.7063,-0.7063]},{"header":{"parameterUnit":"m.s-1","parameterCategory":1,"la1":30.2991,"la2":30.254,"lo1":-89.0895,"lo2":-89.0444,"dy":0.0017,"dx":0.0017,"nx":28,"ny":28,"refTime":"2023-09-17T03:00:00:Z","depth":0,"parameterNumber":3,"parameterNumberName":"V-component_of_WINDS"},"data":[0,0,0,0,0,0,0,0,0,0,0,0,0,0,0,0,0,0,0,0,0,0,0,0,0,0,0,0,0,0,0,0,0,0,0,0,0,0,0,0,0,0,0,0,0,0,0,0,0,0,0,0,0,0,0,0,0,0,-3.241,-3.2411,0,-3.2532,-3.2534,-3.2535,-3.2591,-3.2591,-3.2591,-3.2591,-3.2711,-3.2714,-3.2718,0,0,0,0,0,0,0,0,0,0,0,0,0,-3.2219,-3.2222,-3.241,-3.2411,-3.2413,-3.2532,-3.2534,-3.2536,-3.2591,-3.2591,-3.2591,-3.2591,-3.271,-3.2714,-3.2718,0,0,0,0,0,0,0,0,0,0,0,0,0,-3.2318,-3.2223,-3.241,-3.2455,-3.2461,-3.2532,-3.2534,-3.2536,-3.2591,-3.2591,-3.2591,-3.2591,-3.2709,-3.2714,-3.2719,-3.2752,0,0,-3.2734,-3.2736,0,0,0,0,0,0,0,0,-3.2312,-3.2325,-3.2447,-3.2452,-3.2458,-3.2547,-3.2511,-3.2608,-3.2591,-3.2542,-3.2591,-3.2591,-3.2656,-3.2665,-3.2689,-3.2757,-3.2763,-3.2734,-3.2737,-3.2739,-3.2741,0,0,0,0,0,0,0,-3.2305,-3.232,-3.2458,-3.2449,-3.2456,-3.2468,-3.2482,-3.2529,-3.2598,-3.2546,-3.255,-3.2564,-3.2659,-3.2684,-3.2692,-3.2764,-3.2734,-3.2738,-3.2741,-3.2743,-3.2867,-3.2867,0,0,0,0,0,0,-3.2292,-3.2314,-3.2454,-3.2462,-3.2384,-3.2472,-3.2487,-3.2518,-3.2598,-3.261,-3.2564,-3.2566,-3.2675,-3.2686,-3.2696,-3.2741,-3.2739,-3.2744,-3.2747,-3.2867,-3.2867,-3.2868,0,0,0,0,0,0,-3.2287,-3.2304,-3.2449,-3.2389,-3.2409,-3.2475,-3.251,-3.2521,-3.2545,-3.2612,-3.2624,-3.2577,-3.2676,-3.2689,-3.2738,-3.2746,-3.2746,-3.275,-3.2866,-3.2867,-3.2867,-3.283,0,0,0,0,0,0,-3.2282,-3.2302,-3.2316,-3.2389,-3.2412,-3.249,-3.251,-3.2523,-3.2554,-3.2558,-3.2627,-3.2638,-3.2677,-3.273,-3.2743,-3.2753,-3.2754,-3.2866,-3.2867,-3.2867,-3.2831,-3.283,-3.2828,0,0,0,0,0,-3.2275,-3.23,-3.2317,-3.2333,-3.2431,-3.2491,-3.2504,-3.2549,-3.2555,-3.2569,-3.2612,-3.2636,-3.2743,-3.2735,-3.275,-3.2761,-3.2866,-3.2866,-3.2867,-3.2832,-3.283,-3.2828,0,0,0,0,0,0,-3.2224,-3.231,-3.233,-3.238,-3.2428,-3.25,-3.252,-3.2545,-3.2591,-3.2593,-3.2646,-3.2661,-3.2705,-3.2738,-3.2727,-3.2798,-3.2806,-3.281,-3.2775,-3.2773,-3.2772,-3.2763,-3.2758,0,0,0,0,0,-3.2219,-3.2262,-3.2334,-3.2371,-3.2394,-3.2453,-3.248,-3.2511,-3.2562,-3.2583,-3.2629,-3.2676,-3.2721,-3.2749,-3.2793,-3.2836,-3.2852,-3.2851,-3.285,-3.2848,-3.2851,-3.2876,-3.2877,-3.287,-3.287,-3.287,0,0,-3.2208,-3.2261,-3.2284,-3.2362,-3.2403,-3.2445,-3.2469,-3.2512,-3.2543,-3.2589,-3.2638,-3.2674,-3.273,-3.2776,-3.2799,-3.2805,-3.2856,-3.2849,-3.2847,-3.2851,-3.2877,-3.2877,-3.2878,-3.2871,-3.287,-3.287,0,0,-3.2211,-3.2255,-3.2291,-3.2332,-3.2394,-3.2433,-3.2441,-3.2511,-3.2536,-3.2587,-3.2622,-3.2659,-3.2735,-3.2774,-3.2803,-3.2821,-3.2844,-3.2833,-3.2825,-3.285,-3.285,-3.2851,-3.2857,-3.2859,-3.2836,-3.2836,-3.2836,0,-3.2189,-3.2256,-3.2305,-3.2347,-3.238,-3.2425,-3.2461,-3.2497,-3.257,-3.2591,-3.2597,-3.2694,-3.2735,-3.2791,-3.2795,-3.2818,-3.2828,-3.2826,-3.2846,-3.2848,-3.2849,-3.2856,-3.2858,-3.2834,-3.2834,-3.2834,-3.2834,0,-3.2226,-3.2271,-3.2292,-3.2364,-3.2399,-3.2437,-3.2492,-3.2521,-3.2549,-3.2587,-3.2638,-3.2689,-3.2745,-3.276,-3.2787,-3.282,-3.2822,-3.2837,-3.2847,-3.2847,-3.2854,-3.2857,-3.2832,-3.2832,-3.2833,-3.2833,0,0,-3.22,-3.23,-3.2307,-3.234,-3.2412,-3.2447,-3.2487,-3.2543,-3.2568,-3.2616,-3.265,-3.2714,-3.2728,-3.2761,-3.2793,-3.2814,-3.2825,-3.2826,-3.2828,-3.2825,-3.2865,-3.2854,-3.2856,-3.2841,-3.2842,-3.2843,-3.286,0,-3.2213,-3.2289,-3.2335,-3.2391,-3.2433,-3.2476,-3.2511,-3.2558,-3.2595,-3.2634,-3.2674,-3.2718,-3.2733,-3.2754,-3.2777,-3.2819,-3.2834,-3.2818,-3.2873,-3.2874,-3.2858,-3.286,-3.2848,-3.2863,-3.2863,-3.2864,-3.2864,0,-3.2238,-3.2288,-3.2349,-3.2417,-3.2436,-3.2467,-3.2523,-3.256,-3.2614,-3.2639,-3.2677,-3.2709,-3.2752,-3.2758,-3.2818,-3.2806,-3.2831,-3.2855,-3.2857,-3.2863,-3.2869,-3.2867,-3.2868,-3.287,-3.2869,-3.2869,-3.2869,0,-3.2213,-3.2295,-3.2343,-3.237,-3.245,-3.2471,-3.2505,-3.2559,-3.259,-3.2638,-3.2659,-3.271,-3.2738,-3.2777,-3.2821,-3.2822,-3.2876,-3.2886,-3.2897,-3.2896,-3.2907,-3.2906,-3.2912,-3.2922,-3.2922,-3.2922,-3.2922,0,-3.2223,-3.2259,-3.2333,-3.2362,-3.2403,-3.2455,-3.2494,-3.2531,-3.2579,-3.2615,-3.2654,-3.2687,-3.2744,-3.2784,-3.2819,-3.2863,-3.2875,-3.2895,-3.2904,-3.2892,-3.2889,-3.2909,-3.2909,-3.2923,-3.2923,-3.2923,-3.2923,0,-3.2202,-3.2254,-3.2308,-3.2381,-3.2399,-3.2426,-3.2488,-3.2517,-3.2555,-3.26,-3.2614,-3.2674,-3.2723,-3.2771,-3.2836,-3.2859,-3.2903,-3.2915,-3.2885,-3.289,-3.2899,-3.2897,-3.2918,-3.2924,-3.2929,-3.2929,-3.2929,0,-3.2205,-3.2234,-3.231,-3.2338,-3.2372,-3.2416,-3.2448,-3.25,-3.2532,-3.2596,-3.2617,-3.2669,-3.2714,-3.2789,-3.2837,-3.2887,-3.2901,-3.2905,-3.2908,-3.2895,-3.2901,-3.2899,-3.2902,-3.2903,-3.2903,-3.2902,-3.2902,0,-3.2205,-3.2229,-3.2276,-3.2331,-3.2369,-3.2414,-3.2461,-3.2481,-3.2541,-3.2575,-3.2626,-3.2661,-3.2728,-3.2779,-3.2834,-3.2868,-3.2895,-3.2901,-3.2906,-3.2894,-3.2876,-3.2886,-3.2881,-3.29,-3.29,-3.29,-3.2901,-3.2901,-3.2197,-3.2225,-3.2283,-3.2333,-3.2374,-3.2416,-3.2448,-3.2491,-3.2535,-3.2595,-3.2622,-3.2673,-3.2726,-3.2805,-3.2838,-3.2878,-3.2885,-3.2892,-3.2894,-3.2895,-3.2893,-3.2869,-3.2888,-3.2888,-3.2888,-3.2888,-3.2888,0,-3.2199,-3.2239,-3.2284,-3.2349,-3.2388,-3.2412,-3.2465,-3.2495,-3.2541,-3.2589,-3.2632,-3.2691,-3.274,-3.2793,-3.2845,-3.2867,-3.2881,-3.2879,-3.2878,-3.2886,-3.2883,-3.2874,-3.2868,-3.2868,-3.2868,-3.2868,-3.2868,-3.2868,-3.2205,-3.2253,-3.2284,-3.2353,-3.2392,-3.2444,-3.2472,-3.2511,-3.255,-3.2614,-3.2657,-3.2691,-3.2741,-3.2797,-3.2844,-3.2858,-3.2875,-3.287,-3.2888,-3.2884,-3.2886,-3.2887,-3.2879,-3.2873,-3.2873,-3.2887,-3.2887,-3.2887]}]]